Regional Weather Roundup
Issued by NWS

Home | Current Version | Previous Version | Graphics & Text | Print | Product List | Glossary Off
Versions: 1 2 3 4 5 6 7 8 9 10 11 12 13 14 15 16 17 18 19 20 21 22 23 24 25 26 27 28 29 30 31 32 33 34 35 36 37 38 39 40 41 42 43 44 45 46 47 48 49 50

000
ASUS44 KMEG 200910
RWRTN
TENNESSEE HOURLY STATE WEATHER ROUNDUP
NATIONAL WEATHER SERVICE MEMPHIS TN
300 AM CST MON NOV 20 2017

TNZ002-004-019-021-049-052-054-088>092-201000-
WEST TENNESSEE

CITY           SKY/WX    TMP DP  RH WIND       PRES   REMARKS
MEMPHIS INTL   PTCLDY    32  28  85 CALM      30.24R
NWS MEMPHIS      N/A     28 N/A N/A MISG        N/A
JACKSON        CLOUDY    25  23  92 CALM      30.24F
DYERSBURG      CLEAR     27  25  92 CALM      30.24F
COVINGTON      CLEAR     25  25 100 CALM      30.25S
UNION CITY     CLEAR     27  23  86 CALM      30.24F
BOLIVAR        CLEAR     25  23  93 CALM      30.23S
HUNTINGDON     CLEAR     27  25  93 CALM      30.23S
LEXINGTON      CLEAR     25  25 100 CALM      30.24S
SELMER         CLEAR     25  25 100 CALM      30.23R
SAVANNAH       CLEAR     25  25 100 CALM      30.24R
$$

TNZ008-025-027-028-033-062-065-066-201000-
NORTH MIDDLE TENNESSEE

CITY           SKY/WX    TMP DP  RH WIND       PRES   REMARKS
NASHVILLE      CLOUDY    29  26  89 CALM      30.25F
PORTLAND         N/A     25  23  93 S7        30.23S WCI  17
CLARKSVILLE    CLOUDY    25  22  88 CALM      30.24F
SMYRNA         CLOUDY    24  21  88 CALM      30.26F
COOKEVILLE     CLEAR     23  21  93 NE3       30.23F
GALLATIN       CLEAR     25  23  93 N3        30.28S
CROSSVILLE     CLOUDY    25  21  85 CALM      30.21R
$$

TNZ061-075-076-078-094-096-097-201000-
SOUTH MIDDLE TENNESSEE

CITY           SKY/WX    TMP DP  RH WIND       PRES   REMARKS
FAYETTEVILLE   CLEAR     30  25  80 NE5       30.21F WCI  25
TULLAHOMA      CLEAR     25  21  86 CALM      30.21F
WINCHESTER     CLEAR     21  21 100 CALM      30.24S
MCMINNVILLE    CLEAR     25  23  93 CALM      30.23F
COLUMBIA       CLEAR     25  25 100 CALM      30.22F
SHELBYVILLE    CLEAR     23  23 100 E3        30.23F
$$

TNZ017-018-042-046-047-201000-
NORTHEAST TENNESSEE

CITY           SKY/WX    TMP DP  RH WIND       PRES   REMARKS
TRI CITIES     CLEAR     28  25  88 CALM      30.21R
ELIZABETHTON   CLEAR     27  27 100 CALM      30.21S
$$

TNZ012-013-036-069-073-074-201000-
CENTRAL EAST TENNESSEE

CITY           SKY/WX    TMP DP  RH WIND       PRES   REMARKS
KNOXVILLE      CLEAR     29  29 100 NE3       30.23S
OAK RIDGE      CLEAR     28  27  96 CALM      30.25S
DOWNTOWN KNOXV FOG       30  32 100 CALM      30.25S VSB 0
GATLINBURG     CLEAR     27  25  93 CALM      30.23F
MORRISTOWN     CLEAR     27  27 100 CALM      30.22S
JACKSBORO      CLEAR     27  27 100 CALM      30.27S
$$

TNZ083-085-099-201000-
SOUTHEAST TENNESSEE

CITY           SKY/WX    TMP DP  RH WIND       PRES   REMARKS
CHATTANOOGA    CLEAR     33  26  75 CALM      30.25R
$$

SKY/WX REPORTED AS FAIR MEANS FEW OR NO CLOUDS BELOW
12 THOUSAND FEET.





USA.gov is the U.S. government's official web portal to all federal, state and local government web resources and services.